Pagrindinis puslapis
METAR-TAF:

METAR-TAF

Oro uostai :

Draugen, Norvegija

platuma: 64-21-20N, ilguma: 007-47-30E, Aukštis: 0 m

Dabartinis oras

Ataskaita buvo paskelbta 27 minutes, ne 09:20 UTC
Vėjas 9 kt iš Pietų
Temperatūra 12°C
Drėgmė 88%
Slėgis 1003 hPa
Matomumas 10 km arba daugiau

METAR: ENDR 020920Z AUTO 19009KT 9999NDV FEW016/// 12/10 Q1003 W///S4

Laikas: 11:47 (09:47 UTC)


TAF: trūkstamas

Orai ataskaitas ir orų prognozės (METAR, TAF).

turimą stotys yra geltonos ir raudonos taškus žemėlapyje.

Perkelti pele per norėdami pamatyti stoties vardą.

Tada spustelėkite, norėdami matyti oro stebėjimo ir prognozės.

Norėdami pakeisti žemėlapį: spustelėkite ant žalios mygtukų su juodo kryžiaus žemyn,; žalią mygtuką su brūkšneliu, jei norite nutolinti; arba žalių rodyklių gretimoms žemėlapius.


METAR-TAF: